Humidity-temperature Sensor

Selected Measurement Type: Relative Humidity

 
Relative Humidity [%]     6 entries per hour
Showing data from 11/9/2021 (00:00:00 Z) to 11/8/2021 (00:01:00 Z)
Previous Next [ Day | 3-Days | 7-Days ]
First Last
Prev [ Day | 3-Days | 7-Days ] Next
First Last

Start Time:     :
End Time:     :     
Time (in GMT) :00 :50 :40 :30 :20 :10
Previous Next [ Day | 3-Days | 7-Days ]
First Last
Prev [ Day | 3-Days | 7-Days ] Next
First Last


123 => good data
MM => data is determined as missing
-- => data not received/configured
Back to Top Back to Top
11/9/2021 00:00 to 23:10 82.87 82.41 82.33 83.97 83.66 83.60
11/8/2021 23:00 to 22:10 83.87 85.72 87.26 87.32 86.90 86.53
11/8/2021 22:00 to 21:10 87.98 88.63 88.36 87.80 88.73 88.96
11/8/2021 21:00 to 20:10 86.49 86.74 87.57 87.36 87.53 87.03
11/8/2021 20:00 to 19:10 86.69 87.44 88.29 89.38 88.77 86.84
11/8/2021 19:00 to 18:10 86.28 85.99 84.43 84.41 83.95 84.74
11/8/2021 18:00 to 17:10 84.82 86.01 86.03 84.99 84.95 85.74
11/8/2021 17:00 to 16:10 86.15 85.78 86.32 87.40 87.80 87.80
11/8/2021 16:00 to 15:10 88.07 88.04 88.67 89.23 88.02 85.57
11/8/2021 15:00 to 14:10 85.26 83.78 84.80 83.87 83.12 84.64
11/8/2021 14:00 to 13:10 84.39 84.78 86.76 87.55 87.36 86.98
11/8/2021 13:00 to 12:10 87.73 87.69 87.03 87.13 88.02 88.56
11/8/2021 12:00 to 11:10 87.59 87.21 87.28 87.11 87.59 87.15
11/8/2021 11:00 to 10:10 87.36 87.77 88.54 88.73 89.17 89.98
11/8/2021 10:00 to 9:10 89.35 88.27 87.38 87.48 87.03 86.76
11/8/2021 09:00 to 8:10 86.51 86.36 87.38 87.84 88.32 88.15
11/8/2021 08:00 to 7:10 87.59 87.63 87.90 87.86 87.88 87.55
11/8/2021 07:00 to 6:10 86.76 87.07 86.82 87.57 86.98 86.82
11/8/2021 06:00 to 5:10 86.32 86.13 87.09 87.44 86.55 86.26
11/8/2021 05:00 to 4:10 85.80 85.88 86.78 85.32 84.55 83.95
11/8/2021 04:00 to 3:10 83.97 84.32 83.70 84.78 85.92 86.26
11/8/2021 03:00 to 2:10 85.45 84.70 83.83 82.95 84.80 84.68
11/8/2021 02:00 to 1:10 85.14 85.99 85.28 84.45 83.99 84.28
11/8/2021 01:00 to 0:10 85.05 85.74 86.07 86.51 89.00 89.44